Location: Caltech
(34.1382°N, 118.1253°W)
Time: 03:40:17
(UTC-07:00)

ASTRO E2 - Visible Passes

Search period start: 24 July 2014 00:00
Search period end: 03 August 2014 00:00
Orbit: 535 x 543 km, 31.4° (Epoch: 22 July)

Date Brightness Start Highest point End Pass type
(mag) Time Alt. Az. Time Alt. Az. Time Alt. Az.
24 Jul 3.7 04:29:29 28° SSW 04:30:41 34° SSE 04:34:27 10° E visible
25 Jul 3.4 04:19:44 37° SSW 04:20:26 40° SSE 04:24:19 10° E visible
26 Jul 3.1 04:09:59 45° S 04:10:12 45° SSE 04:14:10 10° E visible
27 Jul 3.1 04:00:16 49° SSE 04:00:16 49° SSE 04:03:59 10° E visible
28 Jul 3.4 03:50:36 45° SE 03:50:36 45° SE 03:53:48 10° E visible
28 Jul 3.0 05:26:35 10° W 05:30:37 52° S 05:34:39 10° ESE visible
29 Jul 3.9 03:41:00 35° ESE 03:41:00 35° ESE 03:43:36 10° E visible
29 Jul 3.1 05:16:24 10° W 05:20:23 48° S 05:24:22 10° ESE visible
30 Jul 4.5 03:31:30 25° ESE 03:31:30 25° ESE 03:33:23 10° E visible
30 Jul 3.2 05:06:53 14° W 05:10:09 42° SSW 05:14:04 10° ESE visible
31 Jul 5.1 03:22:09 17° ESE 03:22:09 17° ESE 03:23:10 10° ESE visible
31 Jul 3.4 04:57:32 20° WSW 04:59:54 37° SSW 05:03:43 10° SE visible
01 Aug 3.6 04:48:22 26° SW 04:49:38 31° SSW 04:53:19 10° SE visible
02 Aug 3.8 04:39:24 26° SSW 04:39:24 26° SSW 04:42:50 10° SE visible
